Simultaneous Nadir Overpasses (SNOs) Predictions

Prediction of SNOs between METOP-B and TERRA Satellite Orbit:

Table of predicted SNOs for the next 14.0 days since TLE Epoch: 4/5/2013
Index Date (METOP-B) Time (METOP-B) Lat,Lon (METOP-B) SZA (METOP-B ) Date (TERRA) Time (TERRA) Lat,Lon (TERRA) SZA (TERRA ) Distance(km) Time Diff (sec)
1 04/07/2013 15:38:13 -81.29, 172.18 103.06 04/07/2013 15:38:53 -81.28, 172.17 103.05 0.52 40
2 04/07/2013 16:28:52 81.29, -20.07 76.98 04/07/2013 16:28:19 81.29, -20.07 76.96 0.50 33
3 04/10/2013 11:12:35 -81.29,-121.39 104.08 04/10/2013 11:13:09 -81.28,-121.44 104.07 1.22 34
4 04/10/2013 12:03:13 81.30, 46.71 76.01 04/10/2013 12:02:34 81.30, 46.67 75.99 1.00 39
5 04/13/2013 06:46:56 -81.29, -54.64 105.04 04/13/2013 06:47:24 -81.29, -54.79 105.04 2.61 28
6 04/13/2013 07:37:35 81.30, 113.04 75.00 04/13/2013 07:36:50 81.29, 112.92 74.96 2.07 45
7 04/16/2013 02:21:17 -81.29, 11.66 106.03 04/16/2013 02:21:38 -81.30, 11.75 106.01 1.60 21
8 04/16/2013 03:11:56 81.29, 179.31 74.00 04/16/2013 03:11:04 81.30, 179.43 73.99 2.10 52
9 04/18/2013 21:55:38 -81.29, 78.29 106.97 04/18/2013 21:55:53 -81.30, 78.18 106.97 1.86 15




NCC Satellite Simultaneous Nadir Overpasses (SNOs) Prediction Service
